WB4ZUT Weather Reports


Display with metric or nautical units.
time (UTC)temp
F
wind
direction
speed
MPH
gust
MPH
rain 1hr
in
rain 24hr
in
rain mn
in
humidity
%
barometer
mb
20260906102211 76 64 0.0 0.0 0.00 0.00 0.00 96 1012.6
20260906101706 76 86 0.0 1.0 0.00 0.00 0.00 96 1012.5
20260906101201 76 70 0.0 0.0 0.00 0.00 0.00 96 1012.6
20260906100657 76 57 0.0 1.0 0.00 0.00 0.00 96 1012.6
20260906100156 76 58 0.0 0.0 0.00 0.00 0.00 96 1012.6
20260906095651 76 62 0.0 0.0 0.00 0.00 0.00 96 1012.5
20260906095147 76 61 0.0 0.0 0.00 0.00 0.00 96 1012.5
20260906094646 77 56 0.0 0.0 0.00 0.00 0.00 96 1012.5
20260906094142 77 61 0.0 0.0 0.00 0.00 0.00 96 1012.4
20260906093638 77 64 0.0 0.0 0.00 0.00 0.00 96 1012.5
20260906093138 77 69 0.0 1.0 0.00 0.00 0.00 95 1012.5
20260906092632 77 56 0.0 1.0 0.00 0.00 0.00 95 1012.5
20260906092127 77 65 0.0 0.0 0.00 0.00 0.00 95 1012.4
20260906091624 77 61 0.0 0.0 0.00 0.00 0.00 95 1012.5
20260906091120 77 62 0.0 0.0 0.00 0.00 0.00 95 1012.4
20260906090615 77 64 0.0 0.0 0.00 0.00 0.00 95 1012.2
20260906090115 77 71 0.0 0.0 0.00 0.00 0.00 94 1012.2
20260906085614 77 64 0.0 0.0 0.00 0.00 0.00 94 1012.1
20260906085108 77 61 0.0 0.0 0.00 0.00 0.00 94 1012.3
20260906084603 78 64 0.0 1.0 0.00 0.00 0.00 93 1012.2
20260906084102 78 60 0.0 0.0 0.00 0.00 0.00 93 1012.1
20260906083558 78 59 0.0 0.0 0.00 0.00 0.00 93 1012.1
20260906083057 78 61 0.0 0.0 0.00 0.00 0.00 93 1012.0
20260906082553 78 60 0.0 0.0 0.00 0.00 0.00 92 1012.2
20260906082048 78 69 0.0 0.0 0.00 0.00 0.00 92 1012.5
20260906081544 78 74 0.0 0.0 0.00 0.00 0.00 92 1012.4
20260906081039 78 42 1.0 2.0 0.00 0.00 0.00 92 1012.3
20260906080536 78 64 0.0 0.0 0.00 0.00 0.00 92 1012.1
20260906080031 78 62 0.0 0.0 0.00 0.00 0.00 91 1012.2
20260906075526 78 71 0.0 0.0 0.00 0.00 0.00 91 1012.1
20260906075020 78 58 0.0 0.0 0.00 0.00 0.00 91 1012.0
20260906074515 78 63 0.0 0.0 0.00 0.00 0.00 90 1011.8
20260906074014 78 68 0.0 0.0 0.00 0.00 0.00 90 1012.0
20260906073509 78 59 0.0 0.0 0.00 0.00 0.00 90 1011.9
20260906073005 78 65 0.0 0.0 0.00 0.00 0.00 90 1011.9
20260906072459 78 59 0.0 0.0 0.00 0.00 0.00 90 1012.1
20260906071955 78 69 0.0 0.0 0.00 0.00 0.00 90 1011.7
20260906071451 78 61 0.0 0.0 0.00 0.00 0.00 90 1012.0
20260906070947 78 65 0.0 0.0 0.00 0.00 0.00 90 1012.1
20260906070443 78 66 0.0 0.0 0.00 0.00 0.00 90 1012.1
20260906065938 78 68 0.0 0.0 0.00 0.00 0.00 90 1011.9
20260906065438 78 63 0.0 0.0 0.00 0.00 0.00 90 1012.1
20260906064933 78 48 0.0 0.0 0.00 0.00 0.00 91 1012.3
20260906064430 79 56 0.0 0.0 0.00 0.00 0.00 91 1012.1
20260906063924 79 60 0.0 0.0 0.00 0.00 0.00 91 1012.3
20260906063419 79 77 0.0 0.0 0.00 0.00 0.00 91 1012.0
20260906062914 79 79 0.0 0.0 0.00 0.00 0.00 91 1012.1
20260906062409 79 79 0.0 0.0 0.00 0.00 0.00 90 1012.1
20260906061904 79 79 0.0 0.0 0.00 0.00 0.00 90 1012.2
20260906061400 80 79 0.0 0.0 0.00 0.00 0.00 89 1012.6
20260906060854 80 75 0.0 0.0 0.00 0.00 0.00 89 1012.5
20260906060352 80 75 0.0 1.0 0.00 0.00 0.00 89 1012.5
20260906055848 80 83 0.0 0.0 0.00 0.00 0.00 89 1012.5
20260906055343 80 60 0.0 0.0 0.00 0.00 0.00 90 1012.6
20260906054838 80 61 0.0 1.0 0.00 0.00 0.00 90 1012.7
20260906054333 80 67 0.0 0.0 0.00 0.00 0.00 90 1012.8
20260906053830 80 71 0.0 0.0 0.00 0.00 0.00 90 1012.8
20260906053325 80 56 0.0 0.0 0.00 0.00 0.00 90 1012.5
20260906052821 80 67 0.0 0.0 0.00 0.00 0.00 89 1012.8
20260906052317 80 61 0.0 0.0 0.00 0.00 0.00 89 1012.8
20260906051814 81 74 0.0 0.0 0.00 0.00 0.00 89 1012.4
20260906051313 81 69 0.0 0.0 0.00 0.00 0.00 89 1012.8
20260906050808 81 98 1.0 1.0 0.00 0.00 0.00 89 1012.5
20260906050304 80 126 2.0 3.0 0.00 0.00 0.00 90 1012.6
20260906045802 80 60 0.0 0.0 0.00 0.00 0.00 90 1012.3
20260906045257 80 60 0.0 0.0 0.00 0.00 0.00 90 1012.5
20260906044753 80 60 0.0 0.0 0.00 0.00 0.00 90 1012.3
20260906044248 80 59 0.0 0.0 0.00 0.00 0.00 90 1012.3
20260906043744 81 60 0.0 0.0 0.00 0.00 0.00 90 1012.2
20260906043240 81 60 0.0 0.0 0.00 0.00 0.00 90 1012.1
20260906042739 81 60 0.0 0.0 0.00 0.00 0.00 89 1012.0
20260906042238 81 60 0.0 0.0 0.00 0.00 0.00 88 1012.0
20260906041734 81 82 0.0 0.0 0.00 0.00 0.00 88 1011.9
20260906041229 81 82 0.0 0.0 0.00 0.00 0.00 88 1012.0
20260906040725 82 82 0.0 0.0 0.00 0.00 0.00 87 1012.0
20260906040220 82 82 0.0 0.0 0.00 0.00 0.00 86 1011.9
20260906035715 82 83 0.0 0.0 0.00 0.00 0.00 86 1011.9
20260906035211 82 82 0.0 0.0 0.00 0.00 0.00 85 1011.9
20260906034705 82 82 0.0 0.0 0.00 0.00 0.00 85 1011.9
20260906034159 83 82 0.0 0.0 0.00 0.00 0.00 85 1012.0
20260906033655 83 82 0.0 0.0 0.00 0.00 0.00 85 1011.9
20260906033156 83 82 0.0 0.0 0.00 0.00 0.00 85 1011.9
20260906032652 83 82 0.0 0.0 0.00 0.00 0.00 84 1011.9
20260906032146 83 82 0.0 0.0 0.00 0.00 0.00 84 1012.0
20260906031642 83 81 0.0 0.0 0.00 0.00 0.00 84 1011.9
20260906031137 83 81 0.0 0.0 0.00 0.00 0.00 83 1011.7
20260906030636 84 81 0.0 0.0 0.00 0.00 0.00 82 1011.6
20260906030132 84 81 0.0 0.0 0.00 0.00 0.00 82 1011.6
20260906025631 84 81 0.0 0.0 0.00 0.00 0.00 82 1011.6
20260906025131 84 82 0.0 0.0 0.00 0.00 0.00 82 1011.8
20260906024625 83 81 0.0 0.0 0.00 0.00 0.00 83 1011.6
20260906024125 84 81 0.0 0.0 0.00 0.00 0.00 81 1011.5
20260906023621 84 81 0.0 0.0 0.00 0.00 0.00 81 1011.3
20260906023115 84 81 0.0 0.0 0.00 0.00 0.00 80 1011.2
20260906022610 85 81 0.0 0.0 0.00 0.00 0.00 80 1011.2
20260906022106 85 81 0.0 0.0 0.00 0.00 0.00 79 1011.1
20260906021602 85 81 0.0 0.0 0.00 0.00 0.00 79 1010.7
20260906021100 85 81 0.0 0.0 0.00 0.00 0.00 78 1011.0
20260906020600 86 81 0.0 0.0 0.00 0.00 0.00 77 1011.0
20260906020100 86 81 0.0 0.0 0.00 0.00 0.00 76 1010.9
20260906015554 86 81 0.0 0.0 0.00 0.00 0.00 75 1011.0
20260906015053 86 96 0.0 0.0 0.00 0.00 0.00 75 1011.1
20260906014548 86 60 0.0 0.0 0.00 0.00 0.00 74 1011.0
20260906014044 86 61 0.0 0.0 0.00 0.00 0.00 73 1010.9
20260906013539 87 62 0.0 0.0 0.00 0.00 0.00 72 1011.0
20260906013035 87 64 0.0 0.0 0.00 0.00 0.00 71 1011.0
20260906012530 88 64 0.0 0.0 0.00 0.00 0.00 70 1010.9
20260906012029 88 64 0.0 0.0 0.00 0.00 0.00 69 1010.7
20260906011526 88 64 0.0 0.0 0.00 0.00 0.00 69 1010.9
20260906011025 88 64 0.0 0.0 0.00 0.00 0.00 69 1011.0
20260906010521 88 64 0.0 0.0 0.00 0.00 0.00 67 1010.4
20260906010017 89 64 0.0 0.0 0.00 0.00 0.00 66 1010.6
20260906005516 89 64 0.0 0.0 0.00 0.00 0.00 65 1010.5
20260906005015 89 64 0.0 0.0 0.00 0.00 0.00 64 1010.4
20260906004515 90 77 0.0 1.0 0.00 0.00 0.00 63 1010.6
20260906004010 89 64 0.0 0.0 0.00 0.00 0.00 63 1010.5
20260906003505 89 52 1.0 1.0 0.00 0.00 0.00 64 1010.3
20260906003001 90 48 0.0 0.0 0.00 0.00 0.00 65 1010.2
20260906002455 90 48 0.0 0.0 0.00 0.00 0.00 64 1010.1
20260906001950 91 58 0.0 0.0 0.00 0.00 0.00 63 1010.4
20260906001446 91 56 0.0 0.0 0.00 0.00 0.00 63 1010.5
20260906000940 91 59 0.0 0.0 0.00 0.00 0.00 62 1010.6
20260906000436 91 43 1.0 1.0 0.00 0.00 0.00 61 1010.4
20260905235931 92 54 1.0 1.0 0.00 0.00 0.00 60 1010.7
20260905235430 92 30 2.0 2.0 0.00 0.00 0.00 60 1010.9
20260905234925 92 60 1.0 1.0 0.00 0.00 0.00 59 1010.7
20260905234421 93 54 0.0 0.0 0.00 0.00 0.00 59 1010.5
20260905233915 93 62 0.0 1.0 0.00 0.00 0.00 58 1010.7
20260905233410 94 50 3.0 5.0 0.00 0.00 0.00 57 1010.8
20260905232909 94 89 1.0 2.0 0.00 0.00 0.00 57 1010.7
20260905232406 95 38 3.0 3.0 0.00 0.00 0.00 56 1010.7
20260905231900 95 230 3.0 3.0 0.00 0.00 0.00 56 1010.6
20260905231356 95 47 1.0 1.0 0.00 0.00 0.00 56 1010.6
20260905230853 95 28 2.0 2.0 0.00 0.00 0.00 56 1010.6
20260905230350 95 46 3.0 3.0 0.00 0.00 0.00 56 1010.5
20260905225844 95 33 1.0 1.0 0.00 0.00 0.00 55 1010.2
20260905225339 94 268 3.0 3.0 0.00 0.00 0.00 56 1010.2
20260905224834 94 5 3.0 3.0 0.00 0.00 0.00 56 1010.2
20260905224330 95 48 1.0 1.0 0.00 0.00 0.00 55 1010.2
20260905223824 96 54 2.0 2.0 0.00 0.00 0.00 54 1010.0
20260905223322 96 62 1.0 1.0 0.00 0.00 0.00 54 1010.2
20260905222817 95 287 3.0 3.0 0.00 0.00 0.00 54 1010.3
20260905222316 94 128 1.0 2.0 0.00 0.00 0.00 56 1010.2
20260905221812 94 14 2.0 2.0 0.00 0.00 0.00 55 1010.3
20260905221309 95 313 2.0 3.0 0.00 0.00 0.00 55 1010.5
20260905220804 95 51 2.0 3.0 0.00 0.00 0.00 54 1010.4
20260905220300 95 255 4.0 5.0 0.00 0.00 0.00 52 1010.2
20260905215759 96 230 5.0 6.0 0.00 0.00 0.00 52 1010.4
20260905215255 97 323 3.0 3.0 0.00 0.00 0.00 49 1010.6
20260905214750 96 345 3.0 3.0 0.00 0.00 0.00 50 1010.2
20260905214246 98 320 3.0 3.0 0.00 0.00 0.00 50 1010.3
20260905213741 100 172 3.0 3.0 0.00 0.00 0.00 46 1010.2
20260905213238 100 37 1.0 1.0 0.00 0.00 0.00 45 1010.1
20260905212733 100 31 1.0 2.0 0.00 0.00 0.00 45 1010.0
20260905212232 101 350 2.0 3.0 0.00 0.00 0.00 44 1010.1
20260905211731 101 13 1.0 2.0 0.00 0.00 0.00 44 1010.2
20260905211227 102 262 3.0 5.0 0.00 0.00 0.00 43 1010.0
20260905210724 102 267 2.0 2.0 0.00 0.00 0.00 43 1010.1
20260905210223 102 264 2.0 2.0 0.00 0.00 0.00 43 1010.3
20260905205722 101 357 2.0 2.0 0.00 0.00 0.00 44 1010.3
20260905205216 103 85 3.0 5.0 0.00 0.00 0.00 43 1010.5
20260905204711 103 341 2.0 6.0 0.00 0.00 0.00 42 1010.3
20260905204206 103 60 1.0 1.0 0.00 0.00 0.00 41 1010.5
20260905203700 103 37 2.0 2.0 0.00 0.00 0.00 42 1010.5
20260905203156 103 65 1.0 1.0 0.00 0.00 0.00 44 1010.5
20260905202651 102 1 2.0 2.0 0.00 0.00 0.00 43 1010.4
20260905202146 102 7 3.0 3.0 0.00 0.00 0.00 43 1010.6
20260905201642 102 56 2.0 5.0 0.00 0.00 0.00 45 1010.8
20260905201136 102 49 1.0 1.0 0.00 0.00 0.00 44 1010.9
20260905200632 102 294 5.0 6.0 0.00 0.00 0.00 44 1011.0
20260905200127 102 300 4.0 6.0 0.00 0.00 0.00 44 1010.9
20260905195625 103 251 5.0 7.0 0.00 0.00 0.00 44 1010.9
20260905195121 102 280 2.0 2.0 0.00 0.00 0.00 43 1011.0
20260905194621 103 343 3.0 3.0 0.00 0.00 0.00 43 1011.0
20260905194120 103 65 1.0 1.0 0.00 0.00 0.00 43 1011.0
20260905193615 101 82 0.0 0.0 0.00 0.00 0.00 46 1010.9
20260905193110 100 136 2.0 2.0 0.00 0.00 0.00 46 1011.1
20260905192606 102 8 3.0 3.0 0.00 0.00 0.00 45 1011.1
20260905192102 102 6 2.0 2.0 0.00 0.00 0.00 45 1011.5
20260905191600 102 64 1.0 1.0 0.00 0.00 0.00 45 1011.4
20260905191059 101 341 2.0 2.0 0.00 0.00 0.00 46 1011.7
20260905190557 102 260 3.0 5.0 0.00 0.00 0.00 45 1011.8
20260905190056 101 348 2.0 2.0 0.00 0.00 0.00 46 1011.6
20260905185556 101 19 3.0 5.0 0.00 0.00 0.00 48 1011.6
20260905185050 101 270 7.0 8.0 0.00 0.00 0.00 47 1011.9
20260905184545 101 110 2.0 2.0 0.00 0.00 0.00 46 1012.1
20260905184044 101 353 4.0 6.0 0.00 0.00 0.00 47 1012.1
20260905183538 101 325 2.0 2.0 0.00 0.00 0.00 47 1012.1
20260905183033 102 251 3.0 3.0 0.00 0.00 0.00 48 1012.2
20260905182533 101 96 2.0 2.0 0.00 0.00 0.00 49 1012.2
20260905182027 101 291 2.0 5.0 0.00 0.00 0.00 48 1012.0
20260905181522 100 340 3.0 3.0 0.00 0.00 0.00 50 1012.1
20260905181021 99 18 1.0 2.0 0.00 0.00 0.00 54 1012.2
20260905180516 98 259 3.0 3.0 0.00 0.00 0.00 53 1012.3
20260905180012 99 316 3.0 5.0 0.00 0.00 0.00 53 1012.7
20260905175510 99 8 3.0 5.0 0.00 0.00 0.00 52 1012.4
20260905175007 99 163 3.0 3.0 0.00 0.00 0.00 53 1012.7
20260905174502 99 149 2.0 3.0 0.00 0.00 0.00 52 1012.5
20260905173957 100 308 4.0 5.0 0.00 0.00 0.00 52 1012.6
20260905173453 99 181 3.0 5.0 0.00 0.00 0.00 53 1012.8
20260905172949 99 111 3.0 3.0 0.00 0.00 0.00 52 1012.7
20260905172447 99 301 5.0 6.0 0.00 0.00 0.00 52 1012.9
20260905171942 98 14 1.0 1.0 0.00 0.00 0.00 55 1012.9
20260905171439 99 316 3.0 3.0 0.00 0.00 0.00 52 1013.1
20260905170935 100 282 2.0 5.0 0.00 0.00 0.00 52 1013.0
20260905170431 99 110 0.0 1.0 0.00 0.00 0.00 55 1013.0
20260905165930 99 339 4.0 5.0 0.00 0.00 0.00 53 1012.9
20260905165425 99 63 1.0 1.0 0.00 0.00 0.00 55 1013.0
20260905164921 99 9 2.0 2.0 0.00 0.00 0.00 54 1013.1
20260905164420 98 46 2.0 3.0 0.00 0.00 0.00 56 1013.4
20260905163915 97 339 3.0 3.0 0.00 0.00 0.00 55 1013.3
20260905163412 99 341 3.0 3.0 0.00 0.00 0.00 55 1013.6
20260905162908 98 133 2.0 2.0 0.00 0.00 0.00 56 1013.5
20260905162402 97 309 4.0 5.0 0.00 0.00 0.00 58 1013.8
20260905161857 98 216 3.0 3.0 0.00 0.00 0.00 57 1013.9
20260905161356 97 18 1.0 1.0 0.00 0.00 0.00 60 1013.8
20260905160854 96 72 0.0 0.0 0.00 0.00 0.00 61 1013.8
20260905160349 96 322 2.0 2.0 0.00 0.00 0.00 61 1013.8
20260905155843 96 67 2.0 2.0 0.00 0.00 0.00 61 1014.0
20260905155342 96 287 4.0 5.0 0.00 0.00 0.00 60 1013.9
20260905154837 95 343 2.0 2.0 0.00 0.00 0.00 62 1013.9
20260905154332 95 67 0.0 0.0 0.00 0.00 0.00 64 1014.0
20260905153827 94 66 3.0 3.0 0.00 0.00 0.00 65 1013.8
20260905153324 94 48 2.0 2.0 0.00 0.00 0.00 66 1013.6
20260905152824 94 62 0.0 1.0 0.00 0.00 0.00 64 1014.1
20260905152323 93 97 1.0 2.0 0.00 0.00 0.00 66 1013.9
20260905151818 93 74 1.0 1.0 0.00 0.00 0.00 66 1013.7
20260905151313 94 105 1.0 2.0 0.00 0.00 0.00 64 1013.9
20260905150808 94 81 0.0 0.0 0.00 0.00 0.00 63 1013.7
20260905150308 93 69 0.0 0.0 0.00 0.00 0.00 67 1014.0
20260905145805 93 102 2.0 3.0 0.00 0.00 0.00 65 1013.8
20260905145259 93 63 0.0 1.0 0.00 0.00 0.00 66 1013.7
20260905144758 93 115 1.0 2.0 0.00 0.00 0.00 65 1014.1
20260905144254 92 67 1.0 1.0 0.00 0.00 0.00 66 1013.8
20260905143752 92 85 1.0 1.0 0.00 0.00 0.00 67 1013.7
20260905143247 92 54 1.0 1.0 0.00 0.00 0.00 67 1014.0
20260905142745 93 81 0.0 1.0 0.00 0.00 0.00 66 1013.9
20260905142240 91 77 0.0 1.0 0.00 0.00 0.00 67 1013.9
20260905141736 92 63 0.0 0.0 0.00 0.00 0.00 66 1013.8
20260905141232 90 43 2.0 2.0 0.00 0.00 0.00 69 1014.1
20260905140727 88 87 0.0 0.0 0.00 0.00 0.00 72 1014.1
20260905140221 88 93 1.0 1.0 0.00 0.00 0.00 74 1014.1
20260905135721 89 90 0.0 1.0 0.00 0.00 0.00 72 1013.9
20260905135217 89 89 1.0 1.0 0.00 0.00 0.00 73 1014.0
20260905134716 88 82 0.0 1.0 0.00 0.00 0.00 73 1013.9
20260905134215 88 75 1.0 1.0 0.00 0.00 0.00 73 1013.9
20260905133711 87 66 0.0 0.0 0.00 0.00 0.00 76 1014.3
20260905133206 86 94 1.0 1.0 0.00 0.00 0.00 76 1014.4
20260905132704 86 90 1.0 1.0 0.00 0.00 0.00 77 1014.1
20260905132200 85 77 0.0 1.0 0.00 0.00 0.00 79 1014.2
20260905131655 84 96 1.0 2.0 0.00 0.00 0.00 81 1014.1
20260905131150 83 92 1.0 2.0 0.00 0.00 0.00 82 1014.2
20260905130645 82 108 3.0 3.0 0.00 0.00 0.00 83 1014.2
20260905130144 81 109 1.0 1.0 0.00 0.00 0.00 87 1014.2
20260905125638 81 76 0.0 0.0 0.00 0.00 0.00 88 1014.3
20260905125134 80 72 0.0 0.0 0.00 0.00 0.00 89 1014.3
20260905124631 80 81 0.0 1.0 0.00 0.00 0.00 89 1014.3
20260905124127 79 79 0.0 0.0 0.00 0.00 0.00 91 1014.1
20260905123622 79 73 0.0 0.0 0.00 0.00 0.00 92 1014.0
20260905123119 78 71 0.0 0.0 0.00 0.00 0.00 93 1014.2
20260905122618 78 82 0.0 0.0 0.00 0.00 0.00 94 1014.0
20260905122113 77 79 0.0 0.0 0.00 0.00 0.00 95 1014.0
20260905121608 77 79 0.0 0.0 0.00 0.00 0.00 95 1013.9
20260905121103 77 80 0.0 0.0 0.00 0.00 0.00 96 1014.0
20260905120602 77 76 0.0 0.0 0.00 0.00 0.00 96 1013.7
20260905120057 77 75 0.0 0.0 0.00 0.00 0.00 96 1013.8
20260905115556 76 66 0.0 0.0 0.00 0.00 0.00 97 1013.8
20260905115051 76 66 0.0 0.0 0.00 0.00 0.00 97 1013.9
20260905114550 76 66 0.0 0.0 0.00 0.00 0.00 97 1013.6
20260905114050 76 66 0.0 0.0 0.00 0.00 0.00 97 1013.6
20260905113544 76 66 0.0 0.0 0.00 0.00 0.00 96 1013.6
20260905113040 77 66 0.0 0.0 0.00 0.00 0.00 96 1013.6
20260905112535 77 66 0.0 0.0 0.00 0.00 0.00 96 1013.3
20260905112030 77 65 0.0 0.0 0.00 0.00 0.00 96 1013.4
20260905111525 77 65 0.0 0.0 0.00 0.00 0.00 96 1013.5
20260905111024 77 64 0.0 0.0 0.00 0.00 0.00 96 1013.4
20260905110524 77 57 0.0 0.0 0.00 0.00 0.00 96 1013.4
20260905110019 77 51 1.0 1.0 0.00 0.00 0.00 95 1013.4
20260905105513 77 84 0.0 0.0 0.00 0.00 0.00 95 1013.5
20260905105013 77 84 0.0 0.0 0.00 0.00 0.00 95 1013.4
20260905104509 77 84 0.0 0.0 0.00 0.00 0.00 95 1013.2
20260905104008 77 85 0.0 0.0 0.00 0.00 0.00 94 1013.2
20260905103504 78 84 0.0 0.0 0.00 0.00 0.00 94 1013.1
20260905103000 78 83 0.0 0.0 0.00 0.00 0.00 94 1013.1
20260905102455 78 84 0.0 0.0 0.00 0.00 0.00 93 1013.2